Wind_Speed
93 93 91 93 95 94 99 99 100 104 105 102 105 114 116 112 111 111 112 113 109 106 107 105 99 92 93 94 92 88 84 76 68 66 64 64 60 55 48 44 44 41 36 28
96 100 103 106 108 111 110 113 113 111 113 112 109 106 102 105 102 102 103 100 97 95 95 104 106 102 98 100 98 95 90 81 76 71 71 68 64 60 55 47 45 46 39 33
99 101 101 104 107 110 111 109 106 104 102 102 101 102 99 101 100 96 99 96 98 94 93 95 91 89 98 108 105 105 97 89 84 83 82 76 68 63 59 53 49 49 45 43
97 99 101 104 107 110 111 112 112 110 110 111 110 105 97 94 91 94 99 97 95 97 94 94 93 90 92 89 93 107 105 97 90 88 89 85 75 67 62 56 55 50 48 40
101 104 107 111 115 114 114 112 108 108 108 107 102 99 96 94 92 93 88 95 97 100 91 93 87 91 91 90 90 94 97 87 85 87 91 85 80 70 63 63 61 55 48 44
106 112 116 118 119 119 116 115 114 104 95 99 100 100 100 94 96 90 93 92 92 83 83 88 85 89 87 91 92 89 90 87 83 77 86 88 76 68 72 69 65 63 52 51
117 119 118 117 119 118 109 106 104 101 92 93 96 97 93 89 88 84 83 87 86 71 87 88 81 84 85 88 84 83 83 82 83 80 79 85 73 75 76 72 69 68 58 55
118 122 121 114 108 107 106 105 103 99 87 86 90 93 91 88 82 79 79 79 81 77 84 85 83 80 84 78 78 78 79 82 81 82 82 72 77 78 79 76 70 70 64 60
117 112 111 107 106 104 102 104 101 96 87 81 88 82 91 82 80 76 78 77 80 79 81 84 84 78 73 79 76 76 79 81 83 81 79 71 69 83 82 76 69 75 72 69
112 107 104 104 103 103 100 99 97 91 83 77 83 77 72 75 71 66 74 73 73 80 77 75 77 72 68 76 71 74 79 82 81 79 83 75 72 80 91 90 81 81 77 74
107 107 107 104 102 100 96 93 88 81 73 73 72 67 60 63 62 58 62 66 68 70 69 70 70 70 65 70 70 73 76 80 81 79 81 76 74 80 85 92 91 86 80 78
108 107 104 101 97 92 87 81 76 69 62 65 63 57 53 55 56 53 55 60 62 60 63 68 70 67 67 67 69 73 76 76 75 80 76 75 77 82 82 86 94 90 84 82
105 103 98 94 88 82 77 71 65 61 58 61 54 48 47 47 49 48 52 52 53 54 57 61 62 61 62 66 67 69 72 74 76 77 72 74 78 83 84 84 94 96 89 85
102 98 91 83 77 72 67 63 59 54 51 53 46 42 41 41 42 43 45 46 46 48 50 54 58 58 61 64 63 64 67 68 70 72 72 74 76 80 82 83 86 94 97 93
97 88 81 74 69 65 61 57 50 46 47 45 37 37 38 35 36 37 40 41 42 43 45 48 51 55 60 61 63 65 66 67 68 66 69 72 76 81 82 81 83 86 97 102
89 80 73 68 63 59 55 49 44 41 41 38 32 32 32 30 30 33 35 37 39 40 41 44 48 53 57 60 63 62 62 63 64 66 66 70 75 78 79 80 81 84 90 101
83 74 66 62 58 54 48 43 40 37 37 33 28 28 27 26 26 29 32 33 35 37 39 44 47 50 52 55 57 57 58 60 61 63 63 65 71 75 78 79 80 84 88 92
78 69 63 58 54 48 43 39 36 34 32 28 25 24 23 24 24 26 29 32 34 37 41 41 44 47 50 52 54 54 56 59 60 61 63 64 69 73 76 78 81 84 86 89
74 67 60 55 49 44 38 34 33 31 28 24 21 20 20 21 23 26 28 30 35 37 37 39 42 45 48 51 53 53 54 58 60 62 63 65 68 70 74 77 82 84 87 90
68 62 55 50 45 40 34 31 30 27 24 22 19 17 18 20 24 27 29 32 36 37 39 40 43 45 48 50 53 53 54 58 60 62 64 66 69 72 74 77 80 84 88 90
66 58 52 46 40 35 30 28 27 23 21 20 18 16 17 20 23 24 27 31 37 36 37 39 41 43 47 50 52 53 54 58 61 63 65 67 67 70 73 76 79 83 86 89
60 54 49 43 38 32 29 26 24 20 18 17 17 15 16 19 22 25 28 31 33 32 35 38 41 43 45 48 51 52 54 57 59 63 67 69 71 71 73 75 79 81 83 86
56 51 44 39 34 30 27 25 23 20 17 15 15 14 16 19 21 23 26 29 31 30 31 34 38 42 44 46 49 51 53 55 56 58 61 64 68 71 73 76 78 81 83 84
55 46 40 36 32 29 25 23 21 19 16 14 16 15 14 17 19 22 25 29 30 31 33 34 36 39 41 42 45 48 50 50 51 54 57 60 64 69 72 75 78 80 83 86
52 45 40 34 30 27 24 22 20 18 16 14 15 16 15 16 19 21 24 26 29 31 33 34 35 37 39 41 44 46 47 48 50 52 53 55 58 63 67 72 77 81 84 87
47 42 37 32 28 26 24 22 19 18 17 15 13 14 17 18 18 20 23 25 28 31 33 35 36 37 38 39 42 44 46 47 49 50 51 53 55 58 62 66 70 75 80 84
42 38 33 29 26 25 24 22 20 18 16 16 15 15 14 16 19 20 21 22 25 28 31 33 34 36 37 37 38 40 41 43 44 45 45 46 49 51 54 58 62 66 70 74
Wind_Direction
285 285 284 283 282 281 282 282 281 281 280 278 277 281 283 279 276 275 273 273 271 271 273 273 272 271 271 270 267 268 269 265 267 270 274 276 277 276 275 279 284 290 297 307
287 288 289 289 289 288 286 285 284 284 285 284 283 283 281 279 278 278 278 278 276 275 274 272 268 265 265 266 266 267 264 264 263 264 267 269 271 272 272 271 274 279 285 293
292 291 291 290 290 288 286 286 285 285 284 283 282 283 281 282 280 277 275 275 276 275 273 273 269 267 265 262 263 264 264 262 261 262 262 265 266 266 267 267 267 273 274 282
294 295 294 294 293 291 290 287 286 286 285 284 282 281 279 277 277 275 276 274 273 272 271 272 271 265 262 261 261 261 264 262 258 258 262 261 258 261 263 265 261 264 265 272
300 300 297 295 293 291 290 290 288 288 289 287 284 283 280 276 274 272 271 272 270 271 270 266 264 263 260 256 256 260 261 261 258 255 257 256 251 253 259 260 258 258 254 263
299 299 299 297 296 294 292 291 290 287 286 285 283 280 277 275 274 272 271 267 264 266 267 262 258 257 258 255 257 259 259 258 257 254 250 248 245 249 249 251 254 255 252 251
297 296 297 299 297 295 293 292 290 287 286 284 282 279 277 274 271 266 265 265 259 259 258 256 254 257 257 256 255 255 256 255 255 253 250 247 243 242 244 246 248 251 250 247
300 298 299 300 296 295 294 293 292 291 289 284 279 278 276 273 271 266 259 262 262 249 251 252 253 252 255 257 255 254 252 252 252 251 249 247 241 241 239 241 242 247 247 244
301 303 304 301 299 298 296 295 294 293 291 288 281 279 276 274 270 265 263 258 259 257 251 249 251 247 247 249 249 250 249 249 248 248 248 245 237 236 235 237 238 242 243 242
308 308 307 306 303 301 299 298 296 295 293 288 284 280 277 274 269 264 261 256 254 252 253 252 251 248 247 246 246 246 243 243 245 244 246 242 238 233 235 238 236 237 239 240
310 310 309 306 305 303 301 299 298 296 294 289 284 282 277 274 268 263 258 256 250 249 250 250 249 248 248 246 242 243 242 242 242 240 243 243 237 236 234 232 234 234 236 238
313 310 309 308 305 304 303 301 299 298 296 287 285 283 278 271 269 263 259 255 253 249 245 246 244 243 242 243 240 239 239 240 240 239 238 237 235 237 235 231 231 233 233 235
312 312 311 309 308 305 304 303 302 298 294 287 284 283 277 272 267 262 256 254 253 250 247 244 244 245 243 242 240 238 237 237 238 239 238 233 233 237 238 233 229 230 232 234
317 314 313 311 309 308 307 305 303 299 292 285 285 282 274 269 265 259 255 252 250 247 245 242 240 239 239 239 238 237 236 236 236 237 235 234 233 234 236 237 233 232 231 232
318 317 314 313 312 310 308 306 303 298 289 287 287 276 272 266 260 255 251 248 246 245 241 238 236 235 235 235 235 235 234 234 234 234 234 232 231 231 234 235 234 233 231 231
321 319 317 315 314 312 310 308 305 297 291 289 286 278 273 267 259 252 247 243 241 240 240 237 235 235 234 233 234 233 235 235 234 233 231 232 231 231 233 234 234 234 232 231
322 321 319 317 316 314 312 310 306 299 295 293 286 277 271 264 256 250 244 239 236 237 237 236 235 236 236 236 236 236 235 236 236 233 232 229 228 230 232 233 232 233 233 234
324 323 321 320 319 317 313 310 306 300 296 294 287 275 267 261 251 239 238 236 232 231 233 236 236 236 237 235 235 234 233 233 234 232 231 230 229 229 231 233 234 233 234 235
326 324 323 322 321 318 314 310 304 301 299 296 286 274 262 252 243 235 233 233 232 232 231 232 233 235 235 236 236 234 231 233 234 234 232 231 231 231 230 230 231 234 236 237
328 325 324 324 322 319 315 310 305 306 303 295 283 270 256 245 240 235 230 228 232 232 232 231 231 232 233 235 237 237 233 231 233 234 234 233 232 231 231 231 231 233 235 238
329 328 327 325 323 320 316 311 309 307 303 292 284 271 257 245 241 240 236 235 237 235 235 234 234 234 236 237 238 239 236 234 232 234 234 234 235 235 234 233 234 235 234 235
330 329 329 327 325 323 322 315 311 307 301 291 285 273 260 252 242 238 236 239 243 242 239 237 237 238 238 240 241 242 241 239 237 234 232 234 235 235 236 237 237 238 239 240
331 330 329 327 326 326 325 320 314 305 298 287 277 267 261 256 251 244 242 245 247 247 245 245 245 245 244 243 244 245 245 245 243 241 239 237 237 240 242 242 242 242 242 242
333 331 329 328 327 325 323 320 314 306 295 286 279 270 256 253 247 245 243 244 247 248 246 244 243 245 246 247 248 248 249 248 247 245 243 241 241 240 239 241 243 244 246 247
333 332 332 330 328 328 325 320 313 306 302 289 276 273 263 250 247 246 244 247 251 253 253 252 249 248 248 247 247 247 247 246 246 246 245 244 244 242 242 243 244 246 248 249
333 332 331 331 329 327 323 319 315 311 301 290 282 272 269 265 254 250 246 245 248 251 252 253 254 254 253 251 251 252 252 252 252 251 250 249 247 246 246 246 246 246 247 249
334 333 331 331 330 327 322 319 317 314 307 300 292 277 262 261 265 262 256 248 243 244 250 254 257 257 257 256 255 253 253 253 254 255 255 254 253 252 250 249 249 249 250 251
Height
10565 10558 10551 10546 10541 10539 10526 10525 10521 10513 10510 10505 10500 10500 10494 10493 10490 10483 10479 10477 10478 10478 10474 10474 10482 10493 10493 10487 10485 10490 10494 10507 10516 10514 10514 10515 10519 10523 10527 10527 10526 10525 10524 10525
10540 10532 10524 10518 10510 10505 10502 10492 10486 10476 10470 10470 10465 10461 10462 10453 10458 10446 10441 10439 10436 10436 10440 10436 10450 10459 10464 10456 10458 10462 10468 10484 10491 10499 10495 10497 10502 10505 10511 10515 10514 10512 10513 10515
10513 10504 10495 10487 10479 10471 10464 10458 10452 10448 10441 10433 10427 10423 10429 10418 10417 10417 10404 10410 10404 10406 10407 10407 10421 10422 10425 10423 10429 10425 10436 10451 10471 10474 10470 10479 10484 10487 10493 10500 10500 10502 10500 10502
10484 10475 10465 10455 10445 10435 10428 10419 10412 10408 10405 10397 10391 10384 10390 10389 10383 10378 10371 10373 10375 10371 10376 10382 10381 10383 10387 10388 10396 10399 10403 10421 10436 10445 10447 10456 10465 10468 10473 10483 10481 10491 10482 10492
10457 10446 10433 10421 10412 10401 10390 10381 10372 10368 10366 10357 10351 10345 10345 10347 10347 10340 10350 10334 10337 10331 10349 10345 10349 10341 10350 10356 10367 10371 10378 10393 10401 10416 10417 10427 10439 10452 10458 10458 10460 10474 10472 10479
10430 10417 10403 10387 10372 10358 10352 10339 10331 10325 10335 10321 10310 10303 10302 10308 10302 10313 10302 10299 10296 10314 10313 10299 10310 10308 10319 10330 10336 10344 10349 10362 10373 10386 10385 10389 10422 10436 10429 10434 10442 10449 10462 10455
10398 10381 10366 10352 10332 10315 10308 10300 10292 10286 10297 10284 10270 10258 10259 10262 10262 10270 10268 10257 10262 10289 10260 10264 10283 10283 10289 10293 10311 10318 10326 10334 10341 10356 10358 10369 10405 10404 10407 10415 10423 10428 10442 10442
10360 10343 10328 10313 10294 10279 10270 10259 10248 10241 10251 10245 10229 10220 10215 10215 10222 10226 10226 10227 10221 10238 10232 10236 10244 10259 10260 10279 10286 10292 10299 10304 10313 10321 10333 10355 10373 10381 10385 10388 10405 10409 10420 10422
10324 10306 10287 10270 10256 10242 10233 10218 10204 10198 10201 10206 10177 10187 10169 10181 10180 10188 10185 10189 10189 10195 10200 10205 10215 10230 10245 10245 10257 10265 10269 10275 10282 10296 10309 10332 10346 10351 10356 10365 10390 10384 10392 10399
10284 10267 10250 10235 10220 10204 10192 10179 10166 10159 10161 10158 10139 10140 10144 10136 10144 10156 10148 10155 10162 10156 10171 10180 10187 10201 10214 10219 10231 10238 10240 10244 10257 10268 10279 10307 10319 10324 10331 10343 10362 10356 10367 10378
10252 10234 10217 10202 10185 10168 10155 10145 10133 10128 10128 10115 10107 10107 10113 10108 10109 10119 10119 10122 10127 10135 10146 10151 10162 10170 10186 10193 10205 10211 10216 10221 10234 10244 10257 10283 10294 10296 10301 10314 10326 10338 10348 10355
10221 10203 10186 10169 10152 10136 10123 10115 10103 10099 10096 10081 10078 10082 10085 10082 10082 10090 10093 10092 10099 10111 10117 10122 10131 10147 10158 10169 10178 10184 10194 10203 10210 10219 10240 10258 10263 10270 10281 10291 10303 10314 10327 10334
10192 10173 10155 10137 10122 10108 10096 10087 10080 10074 10067 10053 10057 10061 10061 10060 10059 10066 10068 10073 10080 10087 10093 10102 10112 10125 10137 10147 10156 10162 10173 10181 10190 10199 10220 10230 10235 10245 10254 10265 10277 10290 10302 10310
10163 10142 10126 10110 10096 10084 10073 10065 10060 10053 10045 10035 10041 10042 10041 10042 10043 10047 10051 10057 10064 10070 10077 10084 10092 10105 10113 10121 10134 10143 10151 10160 10169 10180 10193 10203 10213 10222 10230 10240 10254 10268 10279 10288
10135 10117 10101 10086 10074 10063 10054 10048 10040 10035 10024 10021 10026 10023 10023 10027 10029 10032 10036 10042 10047 10053 10060 10067 10075 10083 10089 10100 10108 10118 10128 10138 10147 10159 10168 10179 10188 10198 10208 10219 10231 10243 10253 10261
10109 10093 10079 10065 10055 10046 10037 10030 10023 10016 10009 10009 10011 10010 10011 10014 10017 10020 10023 10027 10032 10038 10044 10051 10057 10061 10070 10078 10088 10100 10109 10118 10128 10138 10149 10158 10167 10177 10187 10197 10207 10216 10225 10236
10088 10073 10060 10048 10038 10028 10020 10014 10008 10002 9997 9998 9999 9998 10000 10003 10006 10008 10011 10016 10021 10026 10031 10034 10040 10047 10057 10066 10075 10085 10094 10102 10110 10119 10130 10140 10148 10156 10165 10175 10185 10193 10200 10210
10068 10055 10043 10032 10022 10013 10007 10000 9995 9990 9987 9988 9989 9989 9992 9994 9996 9998 10001 10005 10010 10013 10015 10023 10030 10037 10044 10051 10059 10068 10077 10085 10092 10101 10110 10118 10127 10137 10146 10154 10162 10169 10178 10187
10052 10038 10027 10017 10009 10002 9995 9990 9984 9981 9979 9979 9980 9981 9984 9985 9987 9989 9993 9997 9998 10002 10008 10013 10018 10024 10030 10036 10044 10052 10063 10069 10075 10083 10091 10100 10108 10116 10125 10132 10140 10148 10156 10162
10040 10027 10015 10006 9998 9991 9986 9980 9975 9974 9973 9972 9973 9974 9975 9977 9977 9980 9985 9987 9988 9992 9997 10002 10007 10012 10017 10022 10029 10037 10047 10054 10060 10066 10073 10080 10088 10095 10104 10112 10119 10127 10133 10140
10025 10014 10005 9996 9989 9983 9978 9973 9969 9968 9967 9965 9966 9967 9968 9969 9971 9974 9976 9976 9977 9984 9990 9995 9998 10003 10007 10011 10016 10022 10030 10037 10044 10050 10056 10063 10070 10077 10084 10090 10097 10103 10108 10114
10017 10005 9995 9987 9981 9975 9971 9966 9963 9962 9961 9960 9959 9961 9961 9962 9964 9966 9967 9968 9970 9976 9983 9987 9990 9993 9996 10000 10004 10009 10015 10020 10027 10033 10039 10044 10051 10057 10064 10070 10076 10082 10088 10093
10008 9997 9989 9981 9975 9969 9965 9961 9958 9956 9955 9954 9953 9955 9956 9956 9958 9960 9962 9962 9964 9969 9974 9978 9980 9983 9987 9990 9993 9996 10000 10006 10013 10020 10026 10033 10039 10043 10048 10052 10056 10060 10065 10070
10000 9991 9982 9975 9969 9963 9959 9955 9953 9951 9950 9949 9947 9949 9951 9951 9952 9953 9954 9956 9957 9959 9962 9966 9969 9971 9974 9978 9982 9985 9988 9994 9999 10003 10008 10014 10019 10024 10028 10031 10034 10038 10042 10046
9992 9983 9976 9969 9963 9958 9954 9951 9948 9946 9945 9944 9943 9942 9944 9946 9947 9947 9948 9949 9949 9949 9951 9954 9957 9959 9962 9965 9968 9971 9974 9979 9982 9985 9989 9993 9998 10001 10005 10009 10013 10016 10018 10021
9988 9978 9971 9964 9959 9954 9950 9947 9944 9942 9940 9939 9939 9939 9938 9938 9941 9942 9943 9944 9943 9943 9944 9945 9947 9949 9951 9955 9957 9958 9960 9963 9966 9969 9973 9976 9979 9982 9985 9988 9992 9995 9997 9999
9983 9974 9966 9960 9956 9951 9946 9943 9940 9938 9936 9934 9933 9932 9933 9933 9933 9934 9934 9936 9938 9938 9938 9937 9937 9938 9940 9942 9944 9946 9948 9950 9951 9954 9956 9959 9961 9964 9966 9969 9970 9973 9976 9977